Location: Newark
(25.6108°S, 54.5803°W)
Time: 23:08:52
(UTC+00:00)

Vanguard 3 - Pass Details

Date: 04 November 2020
Orbit: 508 x 3262 km, 33.3° (Epoch: 24 November)

Event Time Altitude Azimuth Distance (km) Brightness Sun altitude
Rises 22:52:22 0° 245° (WSW) 2,874 12.1 -12.5°
Reaches altitude 10° 22:54:56 10° 236° (SW) 1,820 10.4 -13.0°
Maximum altitude 22:58:32 36° 167° (SSE) 823 7.3 -13.8°
Enters shadow 23:01:01 17° 106° (ESE) 1,383 7.9 -14.3°
